Pontiac, MI

2:50 AM EDT on March 30, 2017 (GMT -0400)
Oakland County International

Weather History for KPTK - September, 2013

Change the Weather History Date:

Monday, September 16, 2013

  Actual Average Record
Temperature  
Mean Temperature 53 °F -  
Max Temperature 61 °F 71 °F 82 °F (2015)
Min Temperature 45 °F 51 °F 39 °F (2007)
Degree Days  
Heating Degree Days 12    
Growing Degree Days 3 (Base 50)    
Moisture  
Dew Point 47 °F    
Average Humidity 79    
Maximum Humidity 94    
Minimum Humidity 49    
Precipitation  
Precipitation 0.00 in - - ()
Sea Level Pressure  
Sea Level Pressure 30.26 in    
Wind  
Wind Speed 8 mph (North)    
Max Wind Speed 14 mph    
Max Gust Speed 18 mph    
Visibility 9 miles    
Events      
Averages and records for this station are not official NWS values.
T = Trace of Precipitation, MM = Missing Value Source: NWS Daily Summary

Daily Weather History Graph

Daily Weather History Graph

Search for Another Location

Airport or City:

Trip Planner

Search our weather history database for the weather conditions in past years. The results will help you decide how hot, cold, wet, or windy it might be!

Date:

Astronomy

Sep. 16, 2013 Rise Set
Actual Time 7:14 AM EDT 7:41 PM EDT
Civil Twilight 6:46 AM EDT 8:09 PM EDT
Nautical Twilight 6:13 AM EDT 8:42 PM EDT
Astronomical Twilight 5:38 AM EDT 9:17 PM EDT
Moon 5:52 PM EDT (9/16) 3:56 AM EDT (9/16)
Length of Visible Light 13h 23m
Length of Day
12h 26m
Waxing Gibbous, 90% of the Moon is Illuminated
Sep 16
Waxing Gibbous
Sep 19
Full
Sep 26
Last Quarter
Oct 4
New
Oct 11
First Quarter

Hourly Weather History & Observations

Time (EDT) Temp. Windchill Dew Point Humidity Pressure Visibility Wind Dir Wind Speed Gust Speed Precip Events Conditions
12:53 AM 53.1 °F - 50.0 °F 89% 30.13 in 10.0 mi WNW 4.6 mph - N/A   Clear
1:53 AM 52.0 °F - 50.0 °F 93% 30.14 in 10.0 mi WNW 3.5 mph - N/A   Scattered Clouds
2:53 AM 54.0 °F - 52.0 °F 93% 30.15 in 10.0 mi WNW 5.8 mph - N/A   Overcast
3:10 AM 53.6 °F - 51.8 °F 94% 30.15 in 10.0 mi NW 6.9 mph - N/A   Overcast
3:27 AM 53.6 °F - 51.8 °F 94% 30.15 in 9.0 mi NW 8.1 mph - N/A   Overcast
3:53 AM 55.0 °F - 53.1 °F 93% 30.16 in 9.0 mi NW 8.1 mph - N/A   Overcast
4:53 AM 55.0 °F - 53.1 °F 93% 30.17 in 10.0 mi NNW 9.2 mph - N/A   Overcast
5:29 AM 55.4 °F - 51.8 °F 88% 30.18 in 10.0 mi NNW 11.5 mph - N/A   Overcast
5:53 AM 55.0 °F - 52.0 °F 89% 30.19 in 10.0 mi NNW 9.2 mph - N/A   Overcast
6:11 AM 53.6 °F - 51.8 °F 94% 30.19 in 10.0 mi NNW 9.2 mph - N/A   Overcast
6:21 AM 53.6 °F - 51.8 °F 94% 30.20 in 10.0 mi North 10.4 mph - N/A   Overcast
6:39 AM 53.6 °F - 51.8 °F 94% 30.20 in 10.0 mi NNW 9.2 mph - N/A   Overcast
6:53 AM 54.0 °F - 51.1 °F 90% 30.22 in 10.0 mi NNW 12.7 mph 18.4 mph N/A   Overcast
7:53 AM 53.1 °F - 51.1 °F 93% 30.24 in 6.0 mi North 11.5 mph - N/A   Overcast
8:22 AM 53.6 °F - 51.8 °F 94% 30.24 in 2.5 mi North 9.2 mph - N/A   Overcast
8:39 AM 53.6 °F - 51.8 °F 94% 30.25 in 5.0 mi North 10.4 mph 18.4 mph N/A   Overcast
8:53 AM 54.0 °F - 51.1 °F 90% 30.26 in 5.0 mi North 11.5 mph - N/A   Overcast
9:27 AM 53.6 °F - 50.0 °F 88% 30.27 in 10.0 mi NNE 9.2 mph - 0.00 in   Overcast
9:53 AM 53.1 °F - 48.9 °F 86% 30.29 in 10.0 mi NNE 13.8 mph - 0.00 in   Overcast
10:06 AM 55.4 °F - 48.2 °F 77% 30.29 in 10.0 mi NNE 13.8 mph - N/A   Overcast
10:53 AM 54.0 °F - 46.9 °F 77% 30.31 in 10.0 mi North 10.4 mph - N/A   Overcast
11:53 AM 57.0 °F - 46.0 °F 67% 30.32 in 10.0 mi NNE 9.2 mph - N/A   Overcast
12:27 PM 57.2 °F - 44.6 °F 63% 30.32 in 10.0 mi North 9.2 mph - N/A   Overcast
12:53 PM 57.9 °F - 45.0 °F 62% 30.33 in 10.0 mi North 13.8 mph - N/A   Overcast
1:53 PM 59.0 °F - 42.1 °F 53% 30.33 in 10.0 mi North 11.5 mph 18.4 mph N/A   Mostly Cloudy
2:53 PM 60.1 °F - 43.0 °F 53% 30.33 in 10.0 mi NE 9.2 mph - N/A   Mostly Cloudy
3:53 PM 60.1 °F - 42.1 °F 51% 30.33 in 10.0 mi North 11.5 mph - N/A   Mostly Cloudy
4:53 PM 60.1 °F - 42.1 °F 51% 30.33 in 10.0 mi North 5.8 mph - N/A   Mostly Cloudy
5:53 PM 59.0 °F - 39.9 °F 49% 30.33 in 10.0 mi NE 8.1 mph - N/A   Scattered Clouds
6:53 PM 57.0 °F - 41.0 °F 55% 30.34 in 10.0 mi NNE 10.4 mph - N/A   Partly Cloudy
7:53 PM 54.0 °F - 41.0 °F 62% 30.34 in 10.0 mi NE 8.1 mph - N/A   Partly Cloudy
8:53 PM 51.1 °F - 41.0 °F 68% 30.37 in 10.0 mi NE 5.8 mph - N/A   Partly Cloudy
9:53 PM 48.9 °F - 39.9 °F 71% 30.38 in 10.0 mi ENE 9.2 mph - N/A   Partly Cloudy
10:53 PM 46.0 °F 43.9 °F 39.0 °F 76% 30.39 in 10.0 mi East 4.6 mph - N/A   Partly Cloudy
11:53 PM 45.0 °F - 39.0 °F 80% 30.39 in 10.0 mi Calm Calm - N/A   Clear